User: anonymous   Login
Location: Chandrammap?lem
(16.9200°N, 81.0051°E)
Time: 12:45:02
(UTC+00:00)
Language:

Cosmos 1842 Rocket - Orbit

View from above orbital plane
View from above orbital plane
View from above satellite
View from above satellite

Ground track
Ground track

The orbit data is extracted from the following two-line orbital elements,

1 17912U 87038B   24202.86817462  .00001271  00000-0  14856-3 0  9996
2 17912  82.5033 138.5672 0019118 340.7051  19.3438 14.84250111990660
Epoch (UTC): 20 July 2024 20:50:10
Eccentricity: 0.0019118
inclination: 82.5033°
perigee height: 602 km
apogee height: 629 km
right ascension of ascending node: 138.5672°
argument of perigee: 340.7051°
revolutions per day: 14.84250111
mean anomaly at epoch: 19.3438°
orbit number at epoch: 99066

The dashed part of the orbit path shows where the satellite is in the earth's shadow,  

DLR